Regional Weather Roundup
Issued by NWS

Home | Current Version | Previous Version | Text Only | Print | Product List | Glossary Off
Versions: 1 2 3 4 5 6 7 8 9 10 11 12 13 14 15 16 17 18 19 20 21 22 23 24 25 26 27 28 29 30 31 32 33 34 35 36 37 38 39 40 41 42 43 44 45 46 47 48 49 50

028
ASUS43 KMKX 230210
RWRWI

WISCONSIN REGIONAL WEATHER ROUNDUP
NATIONAL WEATHER SERVICE MILWAUKEE/SULLIVAN WI
800 PM CST SUN JAN 22 2017

NOTE: "FAIR" INDICATES FEW OR NO CLOUDS BELOW 12,000 FEET WITH NO
SIGNIFICANT WEATHER AND/OR OBSTRUCTIONS TO VISIBILITY.

WIZ001-002-006>008-014>016-023>028-230300-
NORTHWEST WISCONSIN

CITY           SKY/WX    TMP DP  RH WIND       PRES   REMARKS
SUPERIOR ARPT  CLOUDY    35  35 100 CALM      29.74R FOG
ASHLAND        FOG       35  35 100 CALM      29.74R VSB 1
HAYWARD        FOG       35  34  96 CALM      29.72S VSB 3/4
SIREN          CLOUDY    36  35  99 NW3       29.74S
CUMBERLAND     FOG       32  32 100 CALM      29.73R VSB 1/2
RICE LAKE      FOG       35  35  99 W3        29.75R VSB 1/4
CHETEK         FOG       34  34 100 CALM      29.74R VSB 1/2
LADYSMITH      FOG       36  35  97 NW3       29.73S VSB 1
EAU CLAIRE     CLOUDY    35  34  96 W3        29.74R FOG
MENOMONIE        N/A    N/A N/A N/A MISG        N/A
NEW RICHMOND   CLOUDY    36  36 100 W3        29.76R FOG
OSCEOLA        CLOUDY    37  37 100 W6        29.78S FOG     WCI  32
$$

WIZ003>005-009-010-017-018-230300-
NORTH CENTRAL WISCONSIN

CITY           SKY/WX    TMP DP  RH WIND       PRES   REMARKS
MANITOWISH WTR CLOUDY    32  32 100 NW6       29.69S FOG     WCI  27
ARBOR VITAE    CLOUDY    37  36  96 NW5       29.69S WCI  33
WOODRUFF       CLOUDY    37  36  96 NW5       29.69S WCI  33
RHINELANDER    CLOUDY    36  35  96 NW5       29.68S WCI  32
EAGLE RIVER    CLOUDY    34  34 100 NW5       29.67S WCI  30
LAND O LAKES   CLOUDY    34  34 100 CALM      29.69S FOG
PHILLIPS       CLOUDY    33  33 100 CALM      29.69S
TOMAHAWK       CLOUDY    34  33  97 CALM      29.70R
MEDFORD        FOG       33  33  99 NW5       29.69S VSB 3/4 WCI  29
MERRILL        CLOUDY    35  35 100 NW3         N/A  FOG
$$

WIZ029-030-035-036-043>047-230300-
CENTRAL WISCONSIN

CITY           SKY/WX    TMP DP  RH WIND       PRES   REMARKS
WAUSAU         CLOUDY    36  35  96 NW6       29.68R WCI  31
MOSINEE        NOT AVBL
MARSHFIELD     FOG       34  33  96 NW7       29.69R VSB 3/4 WCI  28
STEVENS POINT  CLOUDY    34  34 100 CALM      29.70S FOG
WAUPACA        CLOUDY    38  37  97 CALM      29.69S
WAUTOMA        CLOUDY    36  35  96 NW6       29.71R WCI  31
WISC RAPIDS    CLOUDY    35  35 100 NW5       29.71S WCI  31
CAMP DOUGLAS   FOG       36  36 100 W6        29.72R VSB 1   WCI  31
$$

WIZ011>013-019>022-031-037>040-048>050-230300-
NORTHEAST WISCONSIN

CITY           SKY/WX    TMP DP  RH WIND       PRES   REMARKS
ANTIGO         CLOUDY    35  35 100 N6        29.68R WCI  30
SHAWANO        CLOUDY    39  38  96 CALM      29.69S
OCONTO         CLOUDY    33  33 100 CALM      29.68S VSB 1/4
STURGEON BAY   NOT AVBL
GREEN BAY      FOG       37  37 100 CALM      29.69R VSB 1/2
MANITOWOC      LGT RAIN  36  36 100 W5        29.69S VSB 1/2 WCI  32
APPLETON       CLOUDY    36  36 100 W7        29.67S FOG     WCI  30
CLINTONVILLE   CLOUDY    36  36 100 NW3       29.69R
OSHKOSH        CLOUDY    37  35  92 NW6       29.68S WCI  32
$$

WIZ032>034-041-042-053>061-230300-
SOUTHWEST WISCONSIN

CITY           SKY/WX    TMP DP  RH WIND       PRES   REMARKS
LA CROSSE      CLOUDY    39  35  86 NW3       29.75R
SPARTA         CLOUDY    34  34 100 CALM      29.75R
VIROQUA        CLOUDY    34  34 100 NW7       29.72R VSB 1/4 WCI  28
BOSCOBEL       CLOUDY    38  36  92 VRB3      29.74S
PRAIRIE DU CHI CLOUDY    37  34  90 NW8       29.74S WCI  30
PLATTEVILLE    CLOUDY    37  37 100 NW10      29.70S WCI  29
$$

WIZ056-057-062-063-064-067-068-230300-
SOUTH CENTRAL WISCONSIN

CITY           SKY/WX    TMP DP  RH WIND       PRES   REMARKS
REEDSBURG      CLOUDY    36  36 100 NW6       29.71S FOG     WCI  31
BARABOO/DELLS  FOG       36  36 100 NW3       29.70S VSB 1/2
LONE ROCK      CLOUDY    38  35  89 NW8       29.72S WCI  32
MINERAL POINT  CLOUDY    37  37 100 NW8       29.69S FOG     WCI  31
MADISON        CLOUDY    37  35  92 NW7       29.70S WCI  32
MIDDLETON      CLOUDY    37  37 100 N5        29.70S WCI  33
WATERTOWN      CLOUDY    37  37 100 N7        29.68S WCI  32
MONROE         CLOUDY    36  36 100 N8        29.67F FOG     WCI  29
JANESVILLE     CLOUDY    39  39 100 CALM      29.68S FOG
$$

WIZ051-052-058>065-066-070>072-230300-
SOUTHEAST WISCONSIN

CITY           SKY/WX    TMP DP  RH WIND       PRES   REMARKS
MILWAUKEE      CLOUDY    40  36  86 N7        29.66F FOG
WAUKESHA       CLOUDY    34  34 100 N5        29.68S FOG     WCI  30
MILWAUKEE/TIMM CLOUDY    36  34  93 NW8       29.68F FOG     WCI  29
RACINE         CLOUDY    38  36  92 N5        29.67F FOG     WCI  34
KENOSHA        CLOUDY    39  35  86 N6        29.65F WCI  35
FOND DU LAC    CLOUDY    37  34  89 NW6       29.68S WCI  32
SHEBOYGAN      CLOUDY    37  35  92 NW3       29.68S FOG
WEST BEND      CLOUDY    36  36 100 CALM      29.68S
JUNEAU         CLOUDY    36  35  98 NW5       29.70R FOG     WCI  32
$$

LSZ147-162-230300-
LAKE SUPERIOR

STATION/POSITION TIME  TEMP    WIND        PRES    WAVE
                       AIR SEA DIR/SP/G            HT/PER
                 (UTC) (F)     (DEG/KT/KT) (MB)    (FT/S)
DEVILS ISLAND    0100   35     250/  6/  7 1007.3R
PORT WING        0040   35     160/  2/  2 1007.1R
SAXON HARBOR     0040   34      CALM  /  1 1006.8R
$$

LMZ867-665-643>646-230300-
LAKE MICHIGAN

STATION/POSITION TIME  TEMP    WIND        PRES    WAVE
                       AIR SEA DIR/SP/G            HT/PER
                 (UTC) (F)     (DEG/KT/KT) (MB)    (FT/S)
NORTHPORT PIER   0040   35        CALM     1005.4R
SISTER BAY       0135   33        CALM       N/A
KEWAUNEE LAKESHO 0148   36     300/  3/  5 1004.7F
SHEBOYGAN LAKESH 0100   37     320/  4/  5 1005.5R
PORT WASHINGTON  0040   38     330/  4/  9 1006.4R
KENOSHA   LAKESH 0100   37     350/  4/  5 1004.7
$$

TC  - TEMPERATURE IN CELSIUS
VSB - VISIBILITY IN STATUTE MILES
WCI - WIND CHILL INDEX
HX  - HEAT INDEX





USA.gov is the U.S. government's official web portal to all federal, state and local government web resources and services.